| time (UTC) | temp F | wind direction | speed knots | gust knots | rain 1hr in | rain 24hr in | rain mn in | humidity % | barometer mb |
| 20260506033014 | 50 | 47 | 13.0 | 18.2 | 0.00 | 0.00 | 0.00 | 78 | 1011.5 |
| 20260506031520 | 51 | 23 | 9.6 | 17.4 | 0.00 | 0.00 | 0.00 | 78 | 1011.6 |
| 20260506030023 | 51 | 38 | 8.7 | 19.1 | 0.00 | 0.00 | 0.00 | 77 | 1011.1 |
| 20260506024524 | 51 | 31 | 11.3 | 18.2 | 0.00 | 0.00 | 0.00 | 76 | 1011.1 |
| 20260506023010 | 52 | 23 | 11.3 | 18.2 | 0.00 | 0.00 | 0.00 | 76 | 1011.1 |
| 20260506021531 | 52 | 24 | 10.4 | 16.5 | 0.00 | 0.00 | 0.00 | 76 | 1010.8 |
| 20260506020025 | 52 | 14 | 12.2 | 18.2 | 0.00 | 0.00 | 0.00 | 75 | 1010.6 |
| 20260506014525 | 52 | 18 | 15.6 | 22.6 | 0.00 | 0.00 | 0.00 | 74 | 1010.3 |
| 20260506013031 | 53 | 23 | 11.3 | 20.0 | 0.00 | 0.00 | 0.00 | 74 | 1010.0 |
| 20260506011514 | 53 | 359 | 12.2 | 18.2 | 0.00 | 0.00 | 0.00 | 73 | 1009.4 |
| 20260506010020 | 54 | 27 | 14.8 | 21.7 | 0.00 | 0.00 | 0.00 | 73 | 1009.1 |
| 20260506004527 | 54 | 6 | 10.4 | 16.5 | 0.00 | 0.00 | 0.00 | 73 | 1008.9 |
| 20260506003026 | 54 | 32 | 12.2 | 18.2 | 0.00 | 0.00 | 0.00 | 72 | 1009.2 |
| 20260506001509 | 54 | 29 | 13.0 | 18.2 | 0.00 | 0.00 | 0.00 | 72 | 1009.2 |
| 20260506000014 | 54 | 356 | 11.3 | 16.5 | 0.00 | 0.00 | 0.00 | 73 | 1009.2 |
| 20260505234503 | 54 | 29 | 12.2 | 17.4 | 0.00 | 0.00 | 0.00 | 73 | 1009.0 |
| 20260505233004 | 54 | 4 | 11.3 | 19.1 | 0.00 | 0.00 | 0.00 | 75 | 1009.0 |
| 20260505231512 | 55 | 20 | 11.3 | 20.0 | 0.00 | 0.00 | 0.00 | 76 | 1009.1 |
| 20260505230021 | 55 | 358 | 13.9 | 18.2 | 0.00 | 0.00 | 0.00 | 75 | 1008.9 |
| 20260505224517 | 56 | 342 | 11.3 | 16.5 | 0.00 | 0.00 | 0.00 | 74 | 1009.1 |
| 20260505223005 | 56 | 328 | 9.6 | 16.5 | 0.00 | 0.00 | 0.00 | 74 | 1008.9 |
| 20260505221504 | 56 | 346 | 11.3 | 17.4 | 0.00 | 0.00 | 0.00 | 75 | 1009.1 |
| 20260505220009 | 57 | 31 | 13.0 | 17.4 | 0.00 | 0.00 | 0.00 | 75 | 1008.9 |
| 20260505214517 | 57 | 13 | 12.2 | 17.4 | 0.00 | 0.00 | 0.00 | 75 | 1008.5 |
| 20260505213028 | 57 | 16 | 12.2 | 20.0 | 0.00 | 0.00 | 0.00 | 75 | 1008.8 |
| 20260505211509 | 58 | 352 | 12.2 | 15.6 | 0.00 | 0.00 | 0.00 | 74 | 1008.0 |
| 20260505210013 | 59 | 335 | 9.6 | 15.6 | 0.00 | 0.00 | 0.00 | 73 | 1008.2 |
| 20260505204514 | 59 | 343 | 11.3 | 16.5 | 0.00 | 0.00 | 0.00 | 72 | 1007.9 |
| 20260505203024 | 61 | 359 | 10.4 | 19.1 | 0.00 | 0.00 | 0.00 | 71 | 1008.0 |
| 20260505201530 | 61 | 356 | 12.2 | 19.1 | 0.00 | 0.00 | 0.00 | 70 | 1007.8 |
| 20260505200010 | 62 | 23 | 11.3 | 17.4 | 0.00 | 0.00 | 0.00 | 69 | 1007.6 |
| 20260505194509 | 62 | 356 | 11.3 | 17.4 | 0.00 | 0.00 | 0.00 | 70 | 1007.5 |
| 20260505193015 | 63 | 13 | 13.0 | 20.0 | 0.00 | 0.00 | 0.00 | 69 | 1007.6 |
| 20260505191519 | 62 | 336 | 11.3 | 21.7 | 0.00 | 0.00 | 0.00 | 72 | 1007.0 |
| 20260505190025 | 62 | 327 | 13.9 | 21.7 | 0.00 | 0.00 | 0.00 | 72 | 1006.9 |
| 20260505184508 | 63 | 20 | 14.8 | 21.7 | 0.00 | 0.00 | 0.00 | 70 | 1007.1 |
| 20260505183018 | 64 | 336 | 13.0 | 17.4 | 0.00 | 0.00 | 0.00 | 69 | 1007.0 |
| 20260505181520 | 63 | 18 | 13.0 | 19.1 | 0.00 | 0.00 | 0.00 | 71 | 1006.5 |
| 20260505180021 | 64 | 6 | 14.8 | 21.7 | 0.00 | 0.00 | 0.00 | 71 | 1007.1 |
| 20260505174529 | 65 | 309 | 15.6 | 20.0 | 0.00 | 0.00 | 0.00 | 71 | 1006.7 |
| 20260505173029 | 65 | 338 | 14.8 | 20.9 | 0.00 | 0.00 | 0.00 | 71 | 1005.9 |
| 20260505171515 | 66 | 1 | 13.0 | 17.4 | 0.00 | 0.00 | 0.00 | 72 | 1005.1 |
| 20260505170020 | 65 | 360 | 13.0 | 20.9 | 0.00 | 0.00 | 0.00 | 73 | 1005.2 |
| 20260505164523 | 66 | 13 | 12.2 | 22.6 | 0.00 | 0.00 | 0.00 | 72 | 1004.8 |
| 20260505163032 | 67 | 345 | 15.6 | 24.3 | 0.00 | 0.00 | 0.00 | 72 | 1004.4 |
| 20260505161525 | 68 | 315 | 13.0 | 24.3 | 0.00 | 0.00 | 0.00 | 72 | 1004.2 |
| 20260505153024 | 73 | 323 | 10.4 | 17.4 | 0.00 | 0.00 | 0.00 | 52 | 1003.3 |
| 20260505151531 | 74 | 283 | 11.3 | 17.4 | 0.00 | 0.00 | 0.00 | 59 | 1002.7 |
| 20260505124528 | 67 | 202 | 3.5 | 4.3 | 0.00 | 0.00 | 0.00 | 82 | 1001.3 |
| 20260505123026 | 67 | 221 | 4.3 | 6.1 | 0.00 | 0.00 | 0.00 | 82 | 1001.2 |
| 20260505121521 | 67 | 229 | 3.5 | 7.8 | 0.00 | 0.00 | 0.00 | 82 | 1001.1 |
| 20260505120006 | 67 | 207 | 5.2 | 8.7 | 0.00 | 0.00 | 0.00 | 82 | 1000.9 |
| 20260505114516 | 66 | 217 | 7.8 | 8.7 | 0.00 | 0.00 | 0.00 | 82 | 1000.5 |
| 20260505113020 | 67 | 214 | 7.0 | 9.6 | 0.00 | 0.00 | 0.00 | 81 | 1000.3 |
| 20260505111518 | 68 | 212 | 6.1 | 8.7 | 0.00 | 0.00 | 0.00 | 80 | 1000.4 |
| 20260505101519 | 69 | 193 | 6.1 | 9.6 | 0.00 | 0.00 | 0.00 | 77 | 1000.0 |
| 20260505100022 | 69 | 205 | 4.3 | 7.8 | 0.00 | 0.00 | 0.00 | 77 | 1000.1 |
| 20260505094524 | 69 | 210 | 5.2 | 7.8 | 0.00 | 0.00 | 0.00 | 78 | 1000.0 |
| 20260505093025 | 69 | 202 | 5.2 | 9.6 | 0.00 | 0.00 | 0.00 | 78 | 1000.0 |
| 20260505091516 | 69 | 195 | 7.0 | 11.3 | 0.00 | 0.00 | 0.00 | 79 | 1000.2 |
| 20260505090019 | 69 | 203 | 3.5 | 6.1 | 0.00 | 0.00 | 0.00 | 79 | 1000.2 |
| 20260505084522 | 69 | 175 | 4.3 | 7.8 | 0.00 | 0.00 | 0.00 | 79 | 1000.4 |
| 20260505083028 | 70 | 188 | 6.1 | 13.9 | 0.00 | 0.00 | 0.00 | 78 | 1000.4 |
| 20260505081509 | 70 | 170 | 8.7 | 14.8 | 0.00 | 0.00 | 0.00 | 78 | 1000.2 |
| 20260505080018 | 70 | 210 | 10.4 | 16.5 | 0.00 | 0.00 | 0.00 | 78 | 1000.4 |
| 20260505074520 | 71 | 195 | 11.3 | 16.5 | 0.00 | 0.00 | 0.00 | 77 | 1000.2 |
| 20260505073035 | 71 | 188 | 11.3 | 19.1 | 0.00 | 0.00 | 0.00 | 77 | 1000.7 |
| 20260505071525 | 71 | 175 | 10.4 | 18.2 | 0.00 | 0.00 | 0.00 | 77 | 1000.6 |
| 20260505070016 | 71 | 170 | 10.4 | 17.4 | 0.00 | 0.00 | 0.00 | 77 | 1000.9 |
| 20260505064524 | 72 | 158 | 9.6 | 16.5 | 0.00 | 0.00 | 0.00 | 76 | 1001.3 |
| 20260505063026 | 72 | 167 | 11.3 | 16.5 | 0.00 | 0.00 | 0.00 | 75 | 1001.4 |
| 20260505061503 | 72 | 172 | 10.4 | 16.5 | 0.00 | 0.00 | 0.00 | 75 | 1001.5 |
| 20260505060023 | 72 | 153 | 8.7 | 15.6 | 0.00 | 0.00 | 0.00 | 75 | 1001.6 |
| 20260505054531 | 72 | 148 | 8.7 | 13.9 | 0.00 | 0.00 | 0.00 | 75 | 1001.7 |
| 20260505053004 | 72 | 174 | 10.4 | 13.9 | 0.00 | 0.00 | 0.00 | 74 | 1001.6 |
| 20260505051506 | 73 | 146 | 11.3 | 15.6 | 0.00 | 0.00 | 0.00 | 74 | 1001.7 |
| 20260505041504 | 73 | 154 | 12.2 | 16.5 | 0.00 | 0.00 | 0.00 | 73 | 1002.1 |
| 20260505040006 | 74 | 119 | 12.2 | 19.1 | 0.00 | 0.00 | 0.00 | 72 | 1002.2 |
| 20260505034510 | 74 | 160 | 12.2 | 19.1 | 0.00 | 0.00 | 0.00 | 72 | 1002.1 |